User: anonymous   Login
Location: Unspecified
(0.0000°N, 0.0000°E)
Time: 19:13:59
(UTC+00:00)
Language:

DSAT - Orbit

View from above orbital plane
View from above orbital plane
View from above satellite
View from above satellite

Ground track
Ground track

The orbit data is extracted from the following two-line orbital elements,

1 42794U 17036AF  23273.93879037  .00006727  00000-0  52072-3 0  9997
2 42794  97.4740 261.1919 0112715 306.6740  52.4164 14.96815577341778
Epoch (UTC): 30 September 2023 22:31:51
Eccentricity: 0.0112715
inclination: 97.4740°
perigee height: 498 km
apogee height: 655 km
right ascension of ascending node: 261.1919°
argument of perigee: 306.6740°
revolutions per day: 14.96815577
mean anomaly at epoch: 52.4164°
orbit number at epoch: 34177

The dashed part of the orbit path shows where the satellite is in the earth's shadow,  

DLR